• In Latvia
  • List of Countries
  • For 7 days
  • Water Temperature
  • Satellite Maps
  • Weather Map
  • Weather Widgets
  • user-avatar
    Login

    Hourly Weather Luanda

    Today, 2 December, Friday

    Time Temperature Precipitation Wind Pressure Humidity
    00:00 +27°C° 0 mm 2 mps 754 mmHg 83%
    01:00 +27°C° 0 mm 2 mps 754 mmHg 85%
    02:00 +26°C° 0 mm 2 mps 753 mmHg 86%
    03:00 +26°C° 0 mm 2 mps 753 mmHg 87%
    04:00 +26°C° 0 mm 2 mps 753 mmHg 88%
    05:00 +27°C° 0 mm 1 mps 753 mmHg 84%
    06:00 +27°C° 0 mm 1 mps 753 mmHg 81%
    07:00 +29°C° 0 mm 1 mps 754 mmHg 74%
    08:00 +31°C° 0 mm 1 mps 754 mmHg 65%
    09:00 +33°C° 0 mm 1 mps 754 mmHg 56%
    10:00 +33°C° 0 mm 0 mps 753 mmHg 47%
    11:00 +36°C° 0 mm 1 mps 753 mmHg 44%
    12:00 +37°C° 0 mm 2 mps 752 mmHg 41%
    13:00 +37°C° 0 mm 2 mps 753 mmHg 42%
    14:00 +37°C° 0 mm 3 mps 752 mmHg 43%
    15:00 +36°C° 0 mm 4 mps 751 mmHg 44%
    16:00 +36°C° 0 mm 4 mps 751 mmHg 45%
    17:00 +34°C° 0 mm 4 mps 751 mmHg 54%
    18:00 +32°C° 0 mm 4 mps 751 mmHg 62%
    19:00 +29°C° 0 mm 4 mps 752 mmHg 71%
    20:00 +29°C° 0 mm 4 mps 752 mmHg 73%
    21:00 +28°C° 0 mm 4 mps 753 mmHg 75%
    22:00 +28°C° 0 mm 3 mps 753 mmHg 78%
    23:00 +28°C° 0 mm 3 mps 753 mmHg 79%

    Tomorrow, 3 December, Saturday

    Time Temperature Precipitation Wind Pressure Humidity
    00:00 +27°C° 0 mm 3 mps 753 mmHg 81%
    01:00 +27°C° 0 mm 2 mps 753 mmHg 83%
    02:00 +27°C° 0 mm 2 mps 753 mmHg 85%
    03:00 +27°C° 0 mm 2 mps 753 mmHg 86%
    04:00 +26°C° 0 mm 2 mps 752 mmHg 88%
    05:00 +27°C° 0 mm 2 mps 753 mmHg 84%
    06:00 +28°C° 0 mm 2 mps 753 mmHg 80%
    07:00 +29°C° 0 mm 1 mps 753 mmHg 76%
    08:00 +30°C° 0 mm 1 mps 753 mmHg 70%
    09:00 +31°C° 0 mm 2 mps 753 mmHg 64%
    10:00 +32°C° 0 mm 2 mps 754 mmHg 57%
    11:00 +35°C° 0 mm 2 mps 753 mmHg 53%
    12:00 +36°C° 0 mm 3 mps 753 mmHg 48%
    13:00 +37°C° 0 mm 4 mps 752 mmHg 44%
    14:00 +36°C° 0 mm 4 mps 752 mmHg 48%
    15:00 +35°C° 0 mm 5 mps 751 mmHg 51%
    16:00 +35°C° 0 mm 5 mps 751 mmHg 54%
    17:00 +33°C° 0 mm 5 mps 751 mmHg 61%
    18:00 +32°C° 0 mm 5 mps 752 mmHg 67%
    19:00 +29°C° 0 mm 5 mps 752 mmHg 73%
    20:00 +29°C° 0 mm 4 mps 753 mmHg 76%
    21:00 +28°C° 0 mm 4 mps 753 mmHg 78%
    22:00 +28°C° 0 mm 3 mps 754 mmHg 80%
    23:00 +28°C° 0 mm 3 mps 754 mmHg 81%

    Day after tomorrow, 4 December, Sunday

    Time Temperature Precipitation Wind Pressure Humidity
    00:00 +28°C° 0 mm 3 mps 754 mmHg 82%
    01:00 +27°C° 0 mm 2 mps 754 mmHg 83%
    02:00 +28°C° 0 mm 2 mps 753 mmHg 82%
    03:00 +28°C° 0 mm 2 mps 753 mmHg 81%
    04:00 +28°C° 0 mm 2 mps 753 mmHg 80%
    05:00 +28°C° 0 mm 2 mps 754 mmHg 79%
    06:00 +28°C° 0 mm 2 mps 754 mmHg 79%
    07:00 +28°C° 0 mm 2 mps 754 mmHg 78%
    08:00 +29°C° 0 mm 2 mps 755 mmHg 73%
    09:00 +30°C° 0 mm 1 mps 755 mmHg 68%
    10:00 +31°C° 0 mm 1 mps 755 mmHg 63%
    11:00 +32°C° 0 mm 2 mps 754 mmHg 59%
    12:00 +32°C° 0 mm 2 mps 754 mmHg 55%
    13:00 +34°C° 0 mm 3 mps 753 mmHg 52%
    14:00 +34°C° 0 mm 3 mps 753 mmHg 53%
    15:00 +33°C° 0 mm 4 mps 752 mmHg 55%
    16:00 +33°C° 0 mm 4 mps 752 mmHg 57%
    17:00 +32°C° 0 mm 4 mps 752 mmHg 62%
    18:00 +30°C° 0 mm 4 mps 753 mmHg 67%
    19:00 +28°C° 0 mm 4 mps 753 mmHg 73%
    20:00 +28°C° 0 mm 3 mps 754 mmHg 74%
    21:00 +28°C° 0 mm 3 mps 754 mmHg 76%
    22:00 +28°C° 0 mm 3 mps 755 mmHg 77%
    23:00 +27°C° 0.2 mm 3 mps 754 mmHg 79%

    5 December, Monday

    Time Temperature Precipitation Wind Pressure Humidity
    00:00 +27°C° 0.2 mm 3 mps 754 mmHg 81%
    01:00 +27°C° 0.2 mm 3 mps 754 mmHg 83%
    02:00 +27°C° 0.1 mm 3 mps 753 mmHg 85%
    03:00 +26°C° 0.1 mm 3 mps 753 mmHg 86%
    04:00 +26°C° 0.1 mm 2 mps 753 mmHg 87%
    05:00 +27°C° 0 mm 3 mps 754 mmHg 85%
    06:00 +27°C° 0 mm 3 mps 754 mmHg 82%
    07:00 +28°C° 0 mm 3 mps 755 mmHg 80%
    08:00 +28°C° 0.2 mm 3 mps 755 mmHg 76%
    09:00 +29°C° 0.2 mm 3 mps 755 mmHg 71%
    10:00 +30°C° 0.2 mm 3 mps 755 mmHg 67%
    11:00 +30°C° 0.3 mm 3 mps 754 mmHg 66%
    12:00 +31°C° 0.3 mm 3 mps 754 mmHg 65%
    13:00 +31°C° 0.3 mm 3 mps 753 mmHg 64%
    14:00 +31°C° 0 mm 3 mps 752 mmHg 61%
    15:00 +33°C° 0 mm 3 mps 751 mmHg 58%
    16:00 +33°C° 0 mm 4 mps 751 mmHg 55%
    17:00 +32°C° 0 mm 4 mps 751 mmHg 62%
    18:00 +29°C° 0 mm 4 mps 752 mmHg 69%
    19:00 +28°C° 0 mm 3 mps 753 mmHg 76%
    20:00 +28°C° 0 mm 3 mps 753 mmHg 79%
    21:00 +27°C° 0 mm 3 mps 754 mmHg 81%
    22:00 +27°C° 0 mm 2 mps 754 mmHg 83%
    23:00 +27°C° 0 mm 2 mps 754 mmHg 85%

    6 December, Tuesday

    Time Temperature Precipitation Wind Pressure Humidity
    00:00 +26°C° 0 mm 1 mps 753 mmHg 86%
    01:00 +26°C° 0 mm 1 mps 753 mmHg 88%
    02:00 +26°C° 0 mm 1 mps 752 mmHg 88%
    03:00 +26°C° 0 mm 1 mps 752 mmHg 87%
    04:00 +26°C° 0 mm 2 mps 752 mmHg 87%
    05:00 +26°C° 0 mm 2 mps 753 mmHg 84%
    06:00 +27°C° 0 mm 2 mps 753 mmHg 81%
    07:00 +28°C° 0 mm 2 mps 754 mmHg 78%
    08:00 +30°C° 0 mm 2 mps 754 mmHg 69%
    09:00 +32°C° 0 mm 2 mps 754 mmHg 59%
    10:00 +35°C° 0 mm 2 mps 754 mmHg 50%
    11:00 +36°C° 0 mm 2 mps 753 mmHg 48%
    12:00 +37°C° 0 mm 3 mps 753 mmHg 45%
    13:00 +38°C° 0 mm 4 mps 752 mmHg 43%
    14:00 +37°C° 0.4 mm 4 mps 751 mmHg 47%
    15:00 +36°C° 0.4 mm 4 mps 751 mmHg 50%
    16:00 +35°C° 0.4 mm 4 mps 751 mmHg 54%
    17:00 +33°C° 0 mm 4 mps 751 mmHg 62%
    18:00 +32°C° 0 mm 4 mps 752 mmHg 69%
    19:00 +29°C° 0 mm 4 mps 753 mmHg 76%
    20:00 +29°C° 0 mm 3 mps 753 mmHg 77%
    21:00 +29°C° 0 mm 3 mps 754 mmHg 78%
    22:00 +29°C° 0 mm 3 mps 754 mmHg 79%
    23:00 +29°C° 0 mm 2 mps 754 mmHg 80%

    7 December, Wednesday

    Time Temperature Precipitation Wind Pressure Humidity
    00:00 +28°C° 0 mm 2 mps 753 mmHg 82%
    01:00 +28°C° 0 mm 2 mps 753 mmHg 83%
    02:00 +28°C° 0.1 mm 2 mps 753 mmHg 85%
    03:00 +27°C° 0.1 mm 2 mps 753 mmHg 86%
    04:00 +27°C° 0.1 mm 1 mps 753 mmHg 88%
    05:00 +28°C° 0.3 mm 1 mps 753 mmHg 86%
    06:00 +28°C° 0.3 mm 1 mps 753 mmHg 83%
    07:00 +29°C° 0.3 mm 1 mps 754 mmHg 80%
    08:00 +30°C° 0 mm 1 mps 754 mmHg 72%
    09:00 +32°C° 0 mm 2 mps 754 mmHg 63%
    10:00 +35°C° 0 mm 2 mps 754 mmHg 55%
    11:00 +35°C° 0.1 mm 2 mps 753 mmHg 53%
    12:00 +36°C° 0.1 mm 3 mps 752 mmHg 50%
    13:00 +36°C° 0.1 mm 4 mps 752 mmHg 47%
    14:00 +36°C° 0 mm 4 mps 751 mmHg 49%
    15:00 +35°C° 0 mm 4 mps 751 mmHg 51%
    16:00 +35°C° 0 mm 5 mps 750 mmHg 53%
    17:00 +33°C° 0 mm 4 mps 751 mmHg 60%
    18:00 +30°C° 0 mm 4 mps 752 mmHg 68%
    19:00 +29°C° 0 mm 4 mps 752 mmHg 76%
    20:00 +29°C° 0 mm 4 mps 753 mmHg 78%
    21:00 +28°C° 0 mm 4 mps 753 mmHg 80%
    22:00 +28°C° 0 mm 4 mps 754 mmHg 82%
    23:00 +28°C° 0 mm 4 mps 753 mmHg 83%
    Show more